Dewpoint
18 19 20 22 23 23 23 22 22 23 24 24 19 28 28 30 28 27 34 37 35 34 30 30 43 42 40 36 40 38 37 34 43 45 40 33 33 42 44 53 58 60 60 68 68 67 67 66 65 65 66 67 68 69 69 70 68 68 70 70 71 71 73 73 74 75 75 74 72 72 73 73 72 70 70 70 69 70 72 71 68 67 67 68 71 72 73
14 14 14 16 19 20 21 22 22 24 23 24 24 24 25 26 33 33 32 39 35 34 33 36 46 46 44 42 40 40 42 43 49 47 43 35 31 34 39 49 53 60 61 65 69 69 70 67 66 63 66 68 67 67 68 68 69 69 70 70 72 72 73 74 75 76 76 76 74 74 74 74 75 73 71 71 69 69 71 71 72 71 70 69 69 71 72
16 16 18 18 17 19 21 22 22 22 23 24 25 25 26 29 28 28 28 35 37 34 37 38 48 46 42 43 39 36 46 48 47 49 47 48 50 49 51 55 53 58 60 63 68 70 70 69 67 65 66 68 67 66 68 67 69 69 69 72 72 73 74 75 75 76 76 76 75 75 75 75 75 75 74 73 74 74 73 73 74 75 71 68 67 69 71
13 15 15 15 16 18 21 23 23 22 22 24 23 25 27 27 29 29 28 31 32 35 37 36 48 44 44 44 44 43 46 50 53 51 49 50 53 52 53 55 58 61 59 61 64 67 67 67 67 66 68 67 67 66 67 68 67 67 69 70 72 74 74 75 76 77 76 76 76 75 76 76 76 76 75 74 75 74 72 73 75 72 71 70 71 68 69
14 9 11 13 13 13 15 19 21 23 24 25 24 25 28 28 28 28 29 30 33 36 38 42 48 45 46 46 46 51 51 52 51 53 53 53 52 52 56 57 61 61 60 58 63 65 66 66 64 64 65 65 68 68 69 69 69 68 69 70 72 74 74 75 76 77 77 77 76 76 76 77 77 76 76 75 74 74 72 74 74 74 75 71 72 71 69
17 15 16 17 16 11 13 18 19 23 22 24 24 24 25 28 27 26 29 31 34 37 44 48 49 50 52 53 53 50 49 47 46 49 57 59 58 56 56 61 59 62 67 68 68 63 68 68 63 64 66 65 67 68 69 70 70 72 72 72 73 73 75 75 76 77 77 77 77 77 77 77 77 77 76 75 75 74 74 75 75 74 73 73 73 74 72
18 17 20 19 17 17 22 18 19 20 21 23 24 25 25 25 27 25 27 34 40 48 50 51 52 53 52 52 50 48 48 48 46 50 58 62 62 63 63 64 65 68 69 70 70 70 65 63 67 65 64 64 67 68 69 69 70 73 72 72 73 74 74 76 76 77 77 78 77 77 78 77 78 77 77 77 76 75 73 74 75 75 74 74 74 74 72
20 20 15 16 14 22 20 21 24 25 24 27 27 24 26 30 36 42 41 39 41 44 49 49 51 52 51 50 52 49 47 58 60 60 60 61 61 62 64 65 66 68 68 69 69 70 70 62 62 65 64 63 64 67 68 69 70 71 73 74 73 74 75 75 76 76 76 77 77 77 78 78 77 77 77 77 77 76 74 72 74 74 75 74 74 74 74
16 16 15 13 23 17 20 19 20 22 28 31 34 32 34 41 42 44 47 49 49 49 49 49 50 51 51 50 48 53 55 56 56 58 60 61 62 63 65 64 64 68 69 69 69 70 70 67 59 64 64 63 64 67 68 68 71 71 72 73 73 74 74 75 75 76 76 76 77 77 77 77 77 77 77 77 76 76 75 73 72 73 75 73 75 74 74
17 14 15 16 16 16 19 26 41 36 37 47 48 46 46 46 44 45 47 48 49 49 49 50 52 52 52 48 45 56 52 53 54 56 59 61 63 63 65 66 66 67 68 69 70 67 66 66 63 66 65 64 67 70 70 71 70 70 70 71 73 75 74 75 75 76 76 76 77 77 77 77 77 76 76 77 76 77 75 73 70 71 73 74 74 74 73
19 16 16 16 18 19 40 45 43 43 43 48 48 46 43 47 47 47 46 45 48 49 49 50 53 53 47 44 48 51 50 50 53 56 60 61 62 64 65 66 65 65 68 69 69 70 68 63 64 68 69 66 64 68 70 70 70 69 70 72 73 74 74 75 75 76 76 76 77 76 77 77 76 76 77 77 76 76 74 74 72 72 72 72 72 73 72
24 20 16 15 19 19 41 46 43 41 43 45 48 39 41 48 47 47 47 47 47 49 51 51 52 52 51 52 50 48 48 50 53 58 61 62 63 64 66 66 67 68 70 70 70 68 65 65 64 68 67 66 67 68 69 69 69 69 71 72 74 75 74 75 75 76 76 77 77 76 77 77 77 77 76 75 75 75 74 74 72 70 69 71 71 71 71
22 22 17 15 18 35 44 45 42 43 46 45 41 35 45 48 48 48 48 47 48 49 51 51 50 50 49 48 48 47 50 51 53 56 60 62 63 65 65 66 68 68 68 68 68 67 67 68 64 65 66 66 67 70 70 71 70 69 71 73 74 75 75 74 74 75 75 76 76 75 76 76 75 75 75 75 75 75 74 72 72 72 70 69 68 71 70
21 19 16 15 19 44 43 44 40 47 42 38 38 47 49 50 47 47 46 46 47 48 49 49 49 46 46 46 47 48 50 51 52 55 59 61 62 64 67 68 69 68 66 68 69 67 67 65 65 65 67 70 71 72 71 70 71 70 73 74 75 76 75 74 74 74 75 76 76 75 76 77 77 76 76 75 75 74 73 73 74 74 74 73 70 69 70
22 24 19 15 16 38 43 44 40 45 42 45 47 47 49 46 47 45 45 45 46 47 48 48 48 46 45 46 46 48 50 50 51 53 58 60 61 63 66 68 69 69 67 68 67 66 63 63 65 66 65 70 71 72 71 73 72 72 73 74 75 75 76 74 75 75 75 75 75 73 75 76 76 76 76 76 75 76 75 75 75 74 75 74 72 71 71
22 20 20 20 28 40 43 43 42 44 46 46 48 48 48 48 47 47 44 44 46 46 47 46 47 47 46 46 47 48 49 50 51 53 58 61 62 63 64 66 69 69 71 69 67 66 64 65 66 67 69 71 72 72 73 74 73 73 74 74 75 75 75 75 74 74 74 75 75 75 76 77 77 77 76 76 75 75 76 74 73 74 74 74 73 71 71
35 30 35 43 41 40 41 43 43 45 47 47 47 47 46 46 44 45 44 44 45 46 47 47 47 46 45 44 46 48 50 50 51 54 59 61 62 64 65 66 69 70 69 68 68 67 66 69 70 71 69 71 72 73 74 75 75 73 74 75 75 75 74 74 75 74 75 75 75 74 75 76 76 76 76 75 75 75 75 74 73 73 74 74 74 73 73
41 38 36 38 38 40 42 40 44 44 45 46 47 47 47 48 46 46 45 45 44 44 46 46 46 46 46 45 46 49 51 51 51 56 59 61 62 64 65 67 69 70 70 69 69 71 69 69 71 73 71 70 73 73 74 75 74 74 74 75 75 75 74 74 74 74 73 73 75 74 74 75 76 76 75 74 74 74 74 73 74 73 74 72 72 73 73
36 29 42 40 42 42 42 41 43 44 46 46 48 47 47 47 49 49 45 46 45 45 45 46 47 46 46 46 47 50 55 53 53 55 58 61 63 65 65 66 68 69 71 70 70 71 71 69 68 66 69 69 73 75 75 73 72 75 75 76 75 75 75 73 74 74 74 73 73 73 74 74 74 75 75 74 74 74 74 72 73 72 72 72 71 71 72
35 35 41 41 41 42 41 41 45 46 48 47 45 46 46 46 48 50 47 46 45 44 44 46 47 48 46 47 48 49 52 55 54 55 58 61 62 64 65 65 66 68 69 71 72 73 72 73 73 71 70 73 74 74 73 72 72 75 76 76 75 75 74 74 74 74 73 75 74 72 73 73 73 73 73 73 72 73 73 72 72 72 72 71 72 72 71
36 38 41 41 40 40 44 46 46 49 48 45 45 45 46 46 46 48 46 45 45 45 43 46 47 48 48 49 50 51 52 55 55 56 58 60 62 64 65 65 65 66 68 69 71 72 73 74 74 76 73 72 73 74 74 73 75 76 75 77 76 76 74 74 74 75 74 73 73 73 73 74 73 82 78 72 72 74 74 74 73 71 71 72 73 72 72
36 38 38 40 36 38 40 41 43 45 46 46 46 45 45 46 46 47 49 48 47 45 46 45 45 48 50 50 50 51 52 55 56 57 58 59 61 64 64 65 66 65 66 67 68 69 72 73 74 74 75 75 75 73 74 74 75 75 77 76 76 76 75 75 75 74 74 73 73 73 73 71 72 64 51 45 55 77 74 57 50 49 62 74 72 74 73
34 39 41 42 41 42 41 42 43 44 45 46 46 46 47 47 47 48 48 49 47 47 48 46 47 49 51 51 52 50 51 53 57 59 59 59 60 62 63 64 64 64 64 66 67 67 70 72 73 74 74 75 75 75 75 75 75 76 76 75 74 74 75 75 74 75 74 74 74 75 75 75 75 73 71 65 44 43 51 52 46 42 42 44 49 55 78
40 41 42 43 43 41 42 42 44 44 47 49 48 47 48 48 48 48 48 50 49 47 47 47 48 48 49 50 51 53 54 52 55 57 60 59 60 62 62 63 63 64 63 64 65 66 68 71 72 72 72 73 74 75 76 78 75 76 76 75 74 73 74 74 76 76 74 74 74 74 74 75 77 75 74 72 69 49 43 46 44 42 42 41 42 46 50
39 43 43 44 44 45 46 45 44 45 48 49 48 48 48 49 49 48 49 50 49 48 49 48 48 49 49 49 51 54 54 55 53 56 59 59 57 57 57 59 61 63 63 64 64 65 67 69 70 70 70 70 72 74 76 77 78 76 75 75 74 74 74 75 74 76 74 75 75 74 74 75 76 76 74 74 73 70 63 44 43 44 43 42 41 42 45
45 44 45 45 46 46 44 44 44 45 46 47 48 48 50 50 49 49 49 50 49 49 49 49 49 50 50 49 51 53 54 54 54 55 55 57 57 54 56 57 59 63 63 63 63 64 65 67 67 67 67 69 70 72 73 75 77 78 76 75 75 74 74 75 75 75 74 75 75 75 76 76 76 76 75 74 74 74 71 70 67 58 47 43 43 45 40
45 46 45 42 42 42 42 43 44 45 46 47 48 49 50 49 49 49 50 50 50 49 50 50 50 51 51 51 51 52 53 54 54 56 56 55 56 52 53 55 57 59 61 62 63 63 65 65 65 65 65 66 68 71 72 73 74 74 76 77 77 77 77 75 75 75 75 75 74 74 75 76 76 75 75 75 75 74 73 73 73 73 72 66 50 40 55
44 45 46 42 42 43 44 45 45 45 46 46 47 48 49 49 48 47 48 49 49 49 49 50 50 50 50 51 51 50 50 53 54 55 54 54 54 55 54 56 57 57 59 61 62 62 63 64 63 64 64 65 66 68 69 71 72 72 72 74 76 75 74 74 76 75 75 75 75 75 75 76 76 74 73 72 72 72 73 73 73 69 65 63 60 50 45
43 43 45 45 46 46 45 45 44 44 45 46 48 48 49 47 46 47 48 48 48 48 48 49 50 50 50 49 50 50 50 52 54 53 55 55 54 55 56 55 56 57 57 59 60 61 63 62 62 62 64 65 65 66 67 69 70 70 70 69 70 71 72 74 74 75 76 75 76 76 72 72 72 73 71 71 70 72 72 70 69 67 66 64 63 63 58
41 45 45 45 45 46 45 44 44 43 44 45 46 47 48 49 46 46 49 49 48 47 47 48 49 50 50 49 49 50 50 51 53 55 55 55 54 56 56 57 56 57 57 58 59 59 60 61 62 62 63 66 67 66 65 67 69 70 71 70 67 67 68 72 75 77 76 76 75 72 74 73 75 73 71 73 72 71 69 69 68 66 65 66 64 65 64
39 41 43 44 44 44 44 44 44 44 44 44 45 46 47 49 48 45 47 48 49 49 49 49 49 49 49 49 50 51 52 53 55 55 56 57 55 56 56 57 56 56 57 58 59 59 59 59 60 61 63 64 67 68 67 65 67 67 69 68 67 63 61 63 66 72 73 73 74 74 73 73 74 74 70 70 71 70 69 68 68 67 66 66 66 65 63
39 40 41 42 43 43 44 44 44 44 44 44 45 45 46 49 50 47 45 46 49 50 49 48 48 49 50 51 52 54 54 54 56 56 56 56 57 57 56 56 57 58 57 57 57 58 59 58 58 59 61 63 65 66 68 68 65 65 65 66 65 65 63 62 66 66 67 67 67 70 71 71 70 70 71 70 70 69 69 68 67 67 66 66 65 65 64
39 38 39 41 41 41 42 44 44 44 44 45 45 46 46 49 50 51 47 46 48 50 50 49 49 49 51 52 53 53 53 55 56 55 55 55 55 56 56 56 57 58 57 56 56 57 58 58 58 60 61 62 63 64 64 67 68 67 64 63 63 64 65 62 62 65 65 65 65 65 66 67 68 67 67 67 68 67 67 67 66 66 65 65 65 66 64
40 39 40 41 42 42 43 43 44 44 45 45 47 47 46 47 49 50 51 52 46 47 49 50 51 52 52 53 54 53 53 52 52 54 54 55 55 55 55 56 56 56 56 56 56 56 57 58 59 60 60 58 61 61 61 61 66 68 68 66 63 62 62 62 63 63 63 63 64 63 64 64 64 64 66 66 66 66 65 63 62 64 64 62 62 60 53
40 40 40 41 41 41 42 42 43 44 44 44 45 46 46 47 47 49 51 51 52 52 52 53 53 54 53 52 52 52 52 52 52 53 53 53 54 55 55 55 55 55 55 55 55 55 56 56 57 58 61 59 58 58 59 60 63 67 65 64 65 63 62 62 61 61 61 61 61 61 61 61 61 62 62 63 63 63 62 61 61 61 61 61 61 60 58
41 40 40 41 41 41 41 42 43 44 44 45 46 46 45 45 47 48 49 50 50 51 52 52 51 51 51 51 51 51 51 52 52 53 53 53 54 55 55 54 53 53 53 53 54 55 55 55 58 57 60 60 57 58 57 59 62 64 63 61 60 61 61 62 62 60 60 60 59 59 59 59 58 58 58 59 59 61 60 60 59 59 58 59 59 59 59
41 41 41 41 42 42 42 43 43 44 45 46 46 46 45 45 45 47 48 48 49 50 50 49 49 49 49 50 50 50 51 51 52 52 53 53 53 52 52 52 53 52 52 52 53 54 55 56 57 57 57 58 58 56 57 59 60 60 60 59 59 58 58 58 58 58 58 58 57 58 57 57 56 56 56 55 55 55 57 58 58 58 57 57 57 56 56
41 41 41 42 41 41 42 43 43 43 43 43 43 45 46 45 45 46 46 47 47 48 49 49 49 49 49 49 49 49 50 51 51 51 52 51 51 50 50 51 51 51 50 51 52 53 54 55 56 56 55 56 56 57 56 57 58 57 57 57 56 56 56 56 55 55 55 55 56 55 55 54 54 53 53 53 53 53 53 53 54 54 55 54 54 52 52
41 41 41 41 40 41 42 41 42 42 43 43 43 43 44 44 44 45 44 45 46 47 47 48 48 48 48 48 48 48 49 50 50 50 50 51 51 50 49 50 51 51 53 52 52 54 53 54 55 55 55 54 55 56 56 55 56 55 55 56 56 54 54 54 53 54 53 54 53 53 52 52 52 52 51 51 51 52 52 51 52 51 52 52 51 50 49
40 40 41 40 39 40 40 41 40 41 41 42 42 42 43 43 43 44 43 44 45 46 46 47 47 47 47 47 47 47 48 48 49 49 49 50 50 49 48 49 49 50 51 52 53 53 52 53 53 53 54 55 55 55 55 55 54 53 52 52 51 51 52 51 51 51 51 51 51 51 51 51 51 50 50 50 50 50 50 50 51 50 50 49 50 50 50
41 40 40 41 40 39 38 39 40 40 41 41 41 43 43 43 43 43 43 43 44 45 45 46 46 46 47 47 47 47 47 47 47 47 48 48 48 47 46 47 49 49 49 49 51 51 52 52 52 52 52 53 54 53 52 53 52 51 51 50 50 50 50 52 49 49 49 49 49 48 48 48 48 48 49 48 49 49 49 48 48 49 49 49 50 50 50
41 41 40 40 40 40 39 39 39 39 40 41 42 42 42 43 43 42 42 42 43 44 44 45 47 46 46 46 47 47 47 46 46 46 47 47 47 46 45 47 48 49 49 49 49 49 50 51 52 51 52 51 52 52 52 52 51 50 49 49 49 49 48 48 48 49 49 49 48 48 48 47 47 47 47 47 47 48 47 48 48 48 49 49 48 49 49
42 41 39 39 40 41 40 40 40 40 40 40 41 41 42 43 43 43 42 42 43 43 43 43 44 45 45 45 45 46 47 48 47 46 46 46 47 48 48 48 48 49 49 48 47 47 47 48 48 49 50 50 50 51 51 51 51 50 48 49 49 48 47 46 46 46 46 46 46 47 47 47 47 47 47 46 46 47 47 46 47 47 47 48 48 48 48
40 39 40 40 40 40 40 40 40 39 39 39 40 41 41 42 42 43 42 42 42 43 42 43 43 43 44 44 44 45 46 46 45 45 44 44 45 46 47 46 47 48 49 48 47 45 45 46 46 47 49 49 49 49 49 50 50 48 49 48 46 46 47 46 46 45 45 45 45 44 44 45 44 44 44 45 46 46 46 46 46 46 45 46 47 47 46
39 39 40 40 41 40 39 38 39 40 40 40 40 41 41 41 41 41 42 42 42 42 43 43 43 43 44 43 44 45 46 46 46 45 44 43 43 44 45 46 45 46 47 48 46 46 45 44 44 46 46 46 46 46 44 45 45 46 46 47 47 47 46 46 47 47 47 46 45 45 46 45 45 44 44 44 44 45 45 45 46 46 47 46 46 46 46
42 41 40 39 39 41 40 39 40 40 40 40 39 40 40 41 41 41 42 42 42 42 42 42 42 43 43 43 44 43 43 44 44 44 45 45 44 44 44 45 45 45 45 46 45 44 45 48 46 44 43 44 44 41 41 41 43 43 44 44 47 47 47 47 47 47 47 46 46 45 45 44 45 44 45 46 46 46 46 46 46 46 46 46 46 46 47
40 41 42 41 42 42 42 41 40 39 39 39 40 40 41 40 40 40 41 41 41 42 42 42 42 42 43 43 44 44 43 42 42 42 42 43 44 44 45 45 45 44 43 43 43 43 43 44 46 46 45 44 43 40 40 41 41 41 41 41 41 41 42 42 44 43 42 43 44 45 45 45 44 45 45 45 45 44 44 44 42 43 44 45 45 46 45
36 39 39 40 40 41 43 45 42 39 41 40 39 38 38 39 39 40 39 40 40 41 41 41 42 43 43 43 43 44 44 43 40 40 40 40 40 42 43 44 45 45 44 45 45 45 45 44 44 44 45 46 44 41 41 40 40 40 40 40 40 39 39 39 39 40 40 41 40 40 40 40 41 40 44 45 45 44 44 45 45 44 45 43 43 43 44
38 37 38 41 38 39 40 41 41 42 40 41 40 37 38 38 38 39 39 39 39 39 39 40 40 41 42 44 43 42 44 44 44 43 41 41 39 38 39 43 45 45 43 42 42 43 46 45 44 43 44 44 42 42 41 40 41 41 41 40 40 40 40 39 39 38 38 38 38 38 38 38 40 41 39 39 39 40 39 38 38 38 40 43 45 44 41
38 38 38 38 39 40 41 39 41 41 41 41 39 37 37 36 35 35 37 37 38 39 38 38 40 40 40 41 43 43 44 44 43 43 43 42 41 42 41 40 41 42 42 41 43 42 45 46 46 45 43 40 40 41 42 42 42 42 41 41 41 40 41 41 42 41 39 39 38 37 37 38 38 39 40 40 41 41 40 38 38 40 41 40 39 39 38
37 37 38 41 39 39 39 42 40 43 42 41 38 37 35 35 35 36 35 37 36 37 36 38 39 39 39 40 41 43 43 43 43 44 43 43 43 43 42 41 41 40 40 39 39 38 39 42 44 45 44 44 42 41 41 40 40 40 40 39 40 40 39 40 40 39 40 40 40 39 39 38 38 38 37 37 38 39 37 38 38 38 37 38 39 40 38
35 39 41 40 36 37 38 40 41 41 39 38 37 35 34 34 35 34 35 38 37 37 36 38 38 40 40 40 40 40 41 40 41 41 42 42 40 39 40 40 39 39 38 38 37 37 37 38 41 42 44 45 44 44 43 42 41 40 39 39 39 39 40 40 39 39 39 39 39 39 39 38 37 37 38 38 38 38 38 38 38 37 38 37 37 37 37